Fort Knox, KY

6:22 AM EST on December 11, 2019 (GMT -0500)
Godman Army Air Field

Weather History for KFTK - October, 2019

Change the Weather History Date:

Saturday, October 12, 2019

  Actual Average Record
Temperature  
Mean Temperature 45 °F -  
Max Temperature 57 °F 67 °F 85 °F (2008)
Min Temperature 33 °F 45 °F 33 °F (2006)
Degree Days  
Heating Degree Days 20    
Moisture  
Dew Point 36 °F    
Average Humidity 72    
Maximum Humidity 100    
Minimum Humidity 35    
Precipitation  
Precipitation 0.01 in - - ()
Sea Level Pressure  
Sea Level Pressure 30.17 in    
Wind  
Wind Speed 7 mph (West)    
Max Wind Speed 12 mph    
Max Gust Speed 18 mph    
Visibility 10 miles    
Events Rain    
Averages and records for this station are not official NWS values.
T = Trace of Precipitation, MM = Missing Value Source: NWS Daily Summary

Daily Weather History Graph

Daily Weather History Graph

Search for Another Location

Airport or City:

Astronomy

Oct. 12, 2019 Rise Set
Actual Time 7:49 AM EDT 7:10 PM EDT
Civil Twilight 7:22 AM EDT 7:37 PM EDT
Nautical Twilight 6:52 AM EDT 8:07 PM EDT
Astronomical Twilight 6:21 AM EDT 8:38 PM EDT
Moon 7:04 PM EDT (10/12) 6:28 AM EDT (10/12)
Length of Visible Light 12h 14m
Length of Day
11h 21m
Waxing Gibbous, 99% of the Moon is Illuminated
Oct 12
Waxing Gibbous
Oct 13
Full
Oct 21
Last Quarter
Oct 27
New
Nov 4
First Quarter

Hourly Weather History & Observations

Time (EDT) Temp. Windchill Dew Point Humidity Pressure Visibility Wind Dir Wind Speed Gust Speed Precip Events Conditions
12:18 AM 44.6 °F 39.7 °F 42.8 °F 93% 30.14 in 10.0 mi NW 9.2 mph 18.4 mph N/A Rain Light Rain
12:31 AM 44.6 °F 39.7 °F 42.8 °F 93% 30.15 in 10.0 mi WNW 9.2 mph - N/A   Overcast
12:34 AM 44.6 °F 39.2 °F 42.8 °F 93% 30.15 in 10.0 mi WNW 10.4 mph - N/A Rain Light Rain
12:48 AM 44.6 °F 39.7 °F 42.8 °F 93% 30.15 in 10.0 mi WNW 9.2 mph 18.4 mph N/A   Overcast
12:56 AM 44.2 °F 38.4 °F 42.3 °F 93% 30.15 in 10.0 mi WNW 11.5 mph - 0.01 in   Overcast
1:56 AM 44.1 °F 39.5 °F 42.4 °F 94% 30.15 in 10.0 mi WNW 8.1 mph - N/A   Overcast
2:56 AM 44.1 °F 40.8 °F 42.1 °F 93% 30.16 in 10.0 mi NW 5.8 mph - N/A   Overcast
3:11 AM 44.6 °F 41.4 °F 42.8 °F 93% 30.16 in 10.0 mi WNW 5.8 mph - N/A   Overcast
3:56 AM 43.3 °F 37.7 °F 40.1 °F 88% 30.17 in 10.0 mi NW 10.4 mph - N/A   Overcast
4:11 AM 42.8 °F 38.0 °F 39.2 °F 87% 30.18 in 10.0 mi NW 8.1 mph - N/A   Mostly Cloudy
4:26 AM 42.8 °F 38.6 °F 35.6 °F 76% 30.18 in 10.0 mi WNW 6.9 mph - N/A   Scattered Clouds
4:56 AM 40.1 °F 36.9 °F 35.6 °F 84% 30.18 in 10.0 mi WNW 4.6 mph - N/A   Clear
5:56 AM 36.3 °F 32.5 °F 35.6 °F 97% 30.19 in 10.0 mi West 4.6 mph - N/A   Clear
6:49 AM 35.6 °F 30.7 °F 33.8 °F 93% 30.22 in 10.0 mi West 5.8 mph - N/A   Clear
6:56 AM 34.9 °F 30.8 °F 34.7 °F 99% 30.20 in 10.0 mi West 4.6 mph - N/A   Clear
7:29 AM 33.8 °F 30.8 °F 33.8 °F 100% 30.22 in 10.0 mi WSW 3.5 mph - N/A   Clear
8:56 AM 39.7 °F 36.5 °F 39.2 °F 98% 30.24 in 10.0 mi West 4.6 mph - N/A   Clear
9:56 AM 42.8 °F 39.3 °F 37.4 °F 81% 30.24 in 10.0 mi West 5.8 mph - N/A   Clear
10:56 AM 46.8 °F - 31.5 °F 55% 30.24 in 10.0 mi WSW 4.6 mph - N/A   Clear
11:56 AM 48.6 °F - 31.8 °F 52% 30.24 in 10.0 mi West 5.8 mph - N/A   Clear
12:56 PM 51.4 °F - 32.4 °F 48% 30.23 in 10.0 mi WNW 5.8 mph - N/A   Clear
1:52 PM 53.6 °F - 30.2 °F 41% 30.21 in 10.0 mi Calm Calm - N/A   Clear
1:56 PM 53.4 °F - 30.4 °F 41% 30.21 in 10.0 mi WSW 5.8 mph - N/A   Clear
2:32 PM 55.4 °F - 32.0 °F 41% 30.19 in 10.0 mi NW 3.5 mph - N/A   Clear
2:56 PM 55.6 °F - 30.4 °F 38% 30.19 in 10.0 mi West 5.8 mph - N/A   Clear
3:10 PM 55.4 °F - 30.2 °F 38% 30.17 in 10.0 mi West 5.8 mph - N/A   Clear
3:56 PM 56.5 °F - 29.8 °F 36% 30.17 in 10.0 mi SSE 5.8 mph - N/A   Clear
4:35 PM 57.2 °F - 30.2 °F 36% 30.14 in 10.0 mi West 4.6 mph - N/A   Clear
4:56 PM 57.0 °F - 29.7 °F 35% 30.15 in 10.0 mi South 8.1 mph - N/A   Clear
5:56 PM 56.1 °F - 28.8 °F 35% 30.14 in 10.0 mi South 6.9 mph - N/A   Clear
6:44 PM 53.6 °F - 30.2 °F 41% 30.12 in 10.0 mi South 4.6 mph - N/A   Clear
6:56 PM 53.1 °F - 30.0 °F 41% 30.12 in 10.0 mi South 3.5 mph - N/A   Clear
7:56 PM 43.7 °F - 37.0 °F 77% 30.12 in 10.0 mi Calm Calm - N/A   Clear
8:56 PM 41.7 °F - 36.7 °F 82% 30.12 in 10.0 mi Calm Calm - N/A   Clear
9:56 PM 40.6 °F - 37.0 °F 87% 30.12 in 10.0 mi Calm Calm - N/A   Clear
10:56 PM 38.7 °F - 37.9 °F 97% 30.11 in 10.0 mi Calm Calm - N/A   Clear
11:56 PM 39.0 °F - 35.4 °F 87% 30.10 in 10.0 mi Calm Calm - N/A   Clear